Zurück zum Katalog

DIRECTV 4S

AktivKommunikationGEO
NORAD 26985·PAYLOAD·🇺🇸 United States

Gestartet Nov 27, 2001 von Guiana Space Centre

Loading…

TLE

AktuellSource: Space-Track

Epoche: Sep 14, 2026, 13:03 UTC

1 26985U 01052A   26257.54437058 -.00000102  00000-0  00000-0 0  9990
2 26985   6.4850  70.6013 0004933 116.3729 187.7576  0.99266758 51953

Verfolge DIRECTV 4S in Echtzeit mit AllMySat

Download on the App Store